Marshalltown, IA

8:02 AM CDT on September 19, 2017 (GMT -0500)
Marshalltown Municipal

Weather History for KMIW - February, 2013

Change the Weather History Date:

Tuesday, February 5, 2013

  Actual Average Record
Temperature  
Mean Temperature 29 °F 20 °F  
Max Temperature 37 °F 30 °F 54 °F (2005)
Min Temperature 20 °F 11 °F -16 °F (2015)
Degree Days  
Heating Degree Days 36 44  
Month to date heating degree days 233 224  
Since 1 July heating degree days 4106 4457  
Cooling Degree Days 0 0  
Month to date cooling degree days 0 0  
Year to date cooling degree days 0 0  
Moisture  
Dew Point 24 °F    
Average Humidity 84    
Maximum Humidity 92    
Minimum Humidity 75    
Precipitation  
Precipitation 0.00 in 0.02 in 0.09 in (2004)
Month to date precipitation 0.01 0.10  
Sea Level Pressure  
Sea Level Pressure 29.94 in    
Wind  
Wind Speed 12 mph (WNW)    
Max Wind Speed 22 mph    
Max Gust Speed 25 mph    
Visibility 10 miles    
Events      
T = Trace of Precipitation, MM = Missing Value Source: NWS Daily Summary

Daily Weather History Graph

Daily Weather History Graph

Search for Another Location

Airport or City:

Trip Planner

Search our weather history database for the weather conditions in past years. The results will help you decide how hot, cold, wet, or windy it might be!

Date:

Astronomy

Feb. 05, 2013 Rise Set
Actual Time 7:20 AM CST 5:31 PM CST
Civil Twilight 6:50 AM CST 6:01 PM CST
Nautical Twilight 6:17 AM CST 6:34 PM CST
Astronomical Twilight 5:44 AM CST 7:07 PM CST
Moon 3:04 AM CST (2/5) 12:47 PM CST (2/5)
Length of Visible Light 11h 10m
Length of Day
10h 11m
Waning Crescent, 26% of the Moon is Illuminated
Feb 5
Waning Crescent
Feb 10
New
Feb 17
First Quarter
Feb 25
Full
Mar 4
Last Quarter

Hourly Weather History & Observations

Time (CST) Temp. Windchill Dew Point Humidity Pressure Visibility Wind Dir Wind Speed Gust Speed Precip Events Conditions
12:53 AM 21.0 °F 10.6 °F 17.1 °F 85% 29.91 in 10.0 mi South 9.2 mph - N/A   Overcast
1:53 AM 21.0 °F 9.9 °F 17.1 °F 85% 29.91 in 10.0 mi SSW 10.4 mph - N/A   Overcast
2:53 AM 21.9 °F 9.8 °F 17.1 °F 82% 29.87 in 10.0 mi South 12.7 mph - N/A   Overcast
3:53 AM 21.0 °F 9.9 °F 17.1 °F 85% 29.84 in 10.0 mi South 10.4 mph - N/A   Scattered Clouds
4:53 AM 21.0 °F 9.3 °F 17.1 °F 85% 29.83 in 10.0 mi SSW 11.5 mph - N/A   Clear
5:53 AM 21.0 °F 8.6 °F 17.1 °F 85% 29.82 in 10.0 mi SW 12.7 mph - N/A   Clear
6:53 AM 21.0 °F 9.3 °F 17.1 °F 85% 29.82 in 9.0 mi SW 11.5 mph - N/A   Clear
8:53 AM 23.0 °F 13.1 °F 19.9 °F 88% 29.83 in 7.0 mi WSW 9.2 mph - N/A   Mostly Cloudy
9:53 AM 28.9 °F 18.6 °F 24.1 °F 82% 29.83 in 8.0 mi West 12.7 mph - N/A   Clear
10:53 AM 34.0 °F 22.7 °F 28.0 °F 79% 29.87 in 10.0 mi WNW 19.6 mph - N/A   Scattered Clouds
11:04 AM 33.8 °F 23.2 °F 28.4 °F 81% 29.84 in 10.0 mi NW 17.3 mph - N/A   Mostly Cloudy
11:42 AM 33.8 °F 23.9 °F 28.4 °F 81% 29.85 in 10.0 mi NW 15.0 mph - N/A   Overcast
11:53 AM 34.0 °F 24.2 °F 28.9 °F 82% 29.89 in 10.0 mi WNW 15.0 mph - N/A   Overcast
12:01 PM 33.8 °F 23.9 °F 30.2 °F 87% 29.85 in 10.0 mi WNW 15.0 mph - N/A   Overcast
12:53 PM 36.0 °F 25.6 °F 30.0 °F 79% 29.91 in 10.0 mi NW 18.4 mph - N/A   Overcast
1:53 PM 37.0 °F 28.5 °F 30.0 °F 76% 29.92 in 10.0 mi WNW 13.8 mph - N/A   Mostly Cloudy
2:17 PM 35.6 °F 25.2 °F 30.2 °F 81% 29.90 in 10.0 mi WNW 18.4 mph - N/A   Mostly Cloudy
2:53 PM 36.0 °F 25.0 °F 28.9 °F 76% 29.96 in 10.0 mi NW 20.7 mph - N/A   Overcast
3:53 PM 36.0 °F 28.0 °F 28.9 °F 76% 29.98 in 10.0 mi NW 11.5 mph - N/A   Overcast
4:53 PM 35.1 °F 27.4 °F 30.0 °F 82% 30.00 in 10.0 mi NW 10.4 mph - N/A   Overcast
5:53 PM 33.1 °F 27.7 °F 28.9 °F 85% 30.02 in 10.0 mi WNW 5.8 mph - N/A   Clear
6:53 PM 30.9 °F 25.2 °F 28.0 °F 89% 30.05 in 10.0 mi WNW 5.8 mph - N/A   Clear
7:53 PM 30.0 °F 21.7 °F 27.0 °F 88% 30.07 in 10.0 mi NW 9.2 mph - N/A   Clear
8:24 PM 30.2 °F 20.2 °F 26.6 °F 86% 30.05 in 10.0 mi NNW 12.7 mph - N/A   Mostly Cloudy
8:41 PM 28.4 °F 18.5 °F 26.6 °F 93% 30.05 in 10.0 mi NNW 11.5 mph - N/A   Scattered Clouds
8:53 PM 28.9 °F 18.6 °F 25.0 °F 85% 30.09 in 10.0 mi NNW 12.7 mph - N/A   Partly Cloudy
9:53 PM 27.0 °F 17.3 °F 21.0 °F 78% 30.11 in 10.0 mi NNW 10.4 mph - N/A   Clear
10:53 PM 24.1 °F 15.2 °F 19.9 °F 84% 30.12 in 10.0 mi North 8.1 mph - N/A   Clear
11:53 PM 21.0 °F 13.4 °F 18.0 °F 88% 30.14 in 10.0 mi NNE 5.8 mph - N/A   Clear